Flag for U.S.A. Weather past 2 weeks in Springfield, Illinois, U.S.A.

Now
77 °F

Sunny.


Feels Like: 79 °F
Forecast: 65 / 83 °F
Wind: 7 mph from West

Location: Capital Airport

Current Time: Jun 29, 2015 at 7:09:58 PM

Latest Report: Jun 29, 2015 at 5:52 PM


Visibility: 10 mi

Pressure: 29.82 "Hg

Humidity: 66%

Dew point: 65 °F

Location of SpringfieldLocation

Historic Weather in Springfield — Graph

°F

Springfield temperature yesterday

Maximum temperature yesterday: 77 °F (at 9:52 AM)
Minimum temperature yesterday: 61 °F (at 3:52 AM)
Average temperature yesterday: 68 °F

Past Weeks' High & Low Weather Summary

 TemperatureHumidityPressure
High88 °F (Jun 22, 2:52 PM)94% (Jun 15, 6:52 PM)30.23 "Hg (Jun 15, 6:52 PM)
Low61 °F (Jun 28, 3:52 AM)48% (Jun 23, 4:52 PM)29.72 "Hg (Jun 29, 1:52 AM)
Average74 °F81%29.96 "Hg
* Reported Jun 14 5:52 PM — Jun 29 5:52 PM, Springfield, Weather by CustomWeather, © 2015

Note: Actual official high and low records may vary slightly from our data, if they occured in-between our weather recording intervals... More about our weather records

Advertising

Springfield weather history for previous 24 hours

 ConditionsComfort  
Time TempWeatherWind HumidityBarometerVisibility
5:52 PM
Mon, Jun 29
77 °FSunny.7 mph66%29.82 "Hg10 mi
4:52 PM79 °FSunny.12 mph62%29.82 "Hg10 mi
3:52 PM79 °FPassing clouds.9 mph65%29.83 "Hg10 mi
2:52 PM80 °FPassing clouds.10 mph60%29.84 "Hg10 mi
1:52 PM79 °FScattered clouds.10 mph65%29.85 "Hg10 mi
12:52 PM77 °FScattered clouds.10 mph64%29.85 "Hg10 mi
11:52 AM77 °FPassing clouds.10 mph64%29.85 "Hg10 mi
10:52 AM75 °FScattered clouds.8 mph71%29.84 "Hg10 mi
9:52 AM71 °FMostly cloudy.9 mph81%29.83 "Hg10 mi
8:52 AM71 °FOvercast.9 mph81%29.83 "Hg10 mi
7:52 AM68 °FMostly cloudy.7 mph87%29.81 "Hg9 mi
6:52 AM67 °FMostly cloudy.8 mph90%29.80 "Hg7 mi
5:52 AM66 °FMostly cloudy.8 mph93%29.77 "Hg10 mi
4:52 AM66 °FMostly cloudy.5 mph93%29.75 "Hg9 mi
3:52 AM66 °FLow clouds.7 mph93%29.74 "Hg7 mi
2:58 AM65 °FLow clouds.No wind94%29.74 "Hg1 mi
2:01 AM64 °FClear.3 mph94%29.74 "Hg3 mi
1:52 AM64 °FClear.5 mph94%29.72 "Hg2 mi
12:52 AM66 °FClear.3 mph93%29.74 "Hg10 mi
11:52 PM
Sun, Jun 28
67 °FPartly cloudy.5 mph90%29.75 "Hg10 mi
10:52 PM69 °FThundershowers. Mostly cloudy.6 mph84%29.77 "Hg8 mi
9:52 PM68 °FThundershowers. Clear.12 mph84%29.75 "Hg10 mi
8:52 PM68 °FPartly sunny.10 mph87%29.75 "Hg10 mi
Weather by CustomWeather, © 2015

See weather overviewHow to use our weather pages